Regional Weather Roundup
Issued by NWS

Home | Current Version | Previous Version | Graphics & Text | Print | Product List | Glossary Off
Versions: 1 2 3 4 5 6 7 8 9 10 11 12 13 14 15 16 17 18 19 20 21 22 23 24 25 26 27 28 29 30 31 32 33 34 35 36 37 38 39 40 41 42 43 44 45 46 47 48 49 50

000
ASUS44 KFWD 250515
RWRTX
NORTH TEXAS HOURLY WEATHER ROUNDUP
NATIONAL WEATHER SERVICE FORT WORTH TX
1200 AM CDT FRI JUL 25 2014

NOTE: "FAIR" INDICATES FEW OR NO CLOUDS BELOW 12,000 FEET WITH NO
SIGNIFICANT WEATHER AND/OR OBSTRUCTIONS TO VISIBILITY.

TXZ118-119-250600-
DALLAS/FORT WORTH METROPLEX

CITY           SKY/WX    TMP DP  RH WIND       PRES   REMARKS
DFW AIRPORT    CLEAR     82  69  64 SE8       30.00R
DALLAS LOVE    CLEAR     82  70  66 SE8       30.00R
FTW MEACHAM    CLEAR     83  68  60 SE8       30.00R
DAL-EXECUTIVE  CLEAR     80  68  66 SE5       30.00R
FTW-ALLIANCE   CLEAR     80  67  64 SE5       30.00R
FTW-NAS-JRB    CLEAR     86  65  49 SE8       30.04R
FTW-SPINKS     CLEAR     77  67  73 SE3       30.03R HAZE
ARLINGTON      CLEAR     81  68  64 SE8       30.00R
GRAND PRAIRIE  CLEAR     81  66  61 E5        30.02R
ADDISON        CLEAR     83  69  62 SE6       30.02R
MESQUITE       CLEAR     76  70  82 SE5       30.01R
LANCASTER      CLEAR     76  67  72 CALM      30.01S
$$

TXZ091>094-102>105-117-120-121-131>134-250600-
NORTH CENTRAL TEXAS

CITY           SKY/WX    TMP DP  RH WIND       PRES   REMARKS
SHRMAN/DENISON CLEAR     79  69  69 SE8       30.03S
GAINESVILLE    CLEAR     77  68  74 E6        30.04S
BOWIE          CLEAR     74  69  82 CALM      30.03R
BRIDGEPORT     CLEAR     77  64  65 SE3       30.03R
DECATUR        CLEAR     78  65  64 SE5       30.03R
DENTON         CLEAR     80  69  69 SE7       30.00R
MCKINNEY       CLEAR     77  71  82 CALM      30.01R
GREENVILLE     CLEAR     73  70  88 CALM      30.02R
ROCKWALL       CLEAR     77  71  83 SE5       30.00R
TERRELL        CLEAR     78  73  84 E5        30.01R
WAXAHACHIE     CLEAR     77  66  68 SE3       30.02S
CLEBURNE       CLEAR     81  70  69 SE9       30.03S
GRANBURY       CLEAR     83  65  54 SE6       30.02S
$$

TXZ083>090-098>101-113>116-127>130-139>142-154-155-250600-
WESTERN NORTH TEXAS

CITY           SKY/WX    TMP DP  RH WIND       PRES   REMARKS
WICHITA FALLS  CLEAR     79  68  69 SE10      29.99S
WF-KICKAPOO    CLEAR     80  65  60 SE8       30.02R
VERNON         CLEAR     83  67  59 SE9       30.01S
ABILENE        CLEAR     81  66  60 SE8       30.06R
ABILENE-DYESS  CLEAR     81  67  63 S8        30.04S
BRECKENRIDGE   CLEAR     83  64  52 SE7       30.02S
GRAHAM         CLEAR     82  64  54 SE6       30.00S
MINERAL WELLS  CLEAR     78  64  61 SE7       30.01R
STEPHENVILLE   CLEAR     81  64  57 SE10      30.06S
COMANCHE       CLEAR     80  65  61 CALM      30.04S
BROWNWOOD      PTCLDY    77  66  69 SE5       30.05R
COLEMAN        CLEAR     79  65  62 SE6       30.06S
BRADY          CLEAR     79  66  65 SE3       30.06S
$$

TXZ143>147-156>162-174-175-250600-
CENTRAL TEXAS

CITY           SKY/WX    TMP DP  RH WIND       PRES   REMARKS
WACO           CLEAR     78  69  73 SE7       30.01R
WACO-MCGREGOR  CLEAR     79  66  65 S7        30.04R
HILLSBORO      CLEAR     79  67  68 SE6       30.01S
CORSICANA      CLEAR     80  70  71 SE7       30.02R
MEXIA          CLEAR     75  69  82 CALM      30.01R
CAMERON        CLEAR     78  70  76 CALM      30.01R
TEMPLE         CLEAR     79  64  61 E6        30.02R
KILLEEN        CLEAR     81  70  69 S5        30.03R
KILLEEN-SKYLRK CLEAR     81  66  61 SE5       30.02S
FORT HOOD      CLEAR     82  70  66 SE5       30.03R
GATESVILLE     CLEAR     79  70  73 CALM      30.05R
HAMILTON       CLEAR     78  66  67 MISG      30.05R
LAMPASAS       CLEAR     78  70  75 CALM      30.03R
$$

TXZ095>097-106>112-122>126-135>138-148>153-164>167-250600-
EAST TEXAS

CITY           SKY/WX    TMP DP  RH WIND       PRES   REMARKS
PARIS          CLEAR     73  68  83 SE6       30.03S
SULPHUR SPRNGS CLEAR     75  72  88 SE3       30.04R
CLARKSVILLE    CLEAR     75  73  94 CALM      30.03R
MOUNT PLEASANT CLEAR     73  72  98 CALM      30.04R
GILMER         CLEAR     73  73 100 CALM      30.03S
MINEOLA        CLEAR     73  72  94 CALM      30.02R FOG
TYLER          CLEAR     76  71  85 E3        30.01S
LONGVIEW       CLEAR     73  70  90 SE3       30.01R
MARSHALL       CLEAR     73  71  92 CALM      30.04R
ATHENS         CLEAR     73  72  94 CALM      30.01S
JACKSONVILLE   CLEAR     76  72  87 CALM      30.04F
HENDERSON      CLEAR     74  73  96 CALM      30.03S
NACOGDOCHES    CLEAR     75  72  88 E3        30.02R
LUFKIN         CLEAR     79  72  79 CALM      30.01R
$$

SUPPLEMENTAL OBSERVATIONS (CENTRAL)

CITY           SKY/WX    TMP DP  RH WIND       PRES   REMARKS
LAKE TEXOMA      N/A     77  72  83 SE5         N/A
CADDO GRASSLND   N/A     75  70  83 S2          N/A
PAT MAYSE LAKE   N/A     75  70  83 E7          N/A
LAKE LIMESTONE   N/A     75  73  94 CALM        N/A
MCGREGOR         N/A     79  66  65 SE5         N/A
$$

SUPPLEMENTAL OBSERVATIONS (WEST)

CITY           SKY/WX    TMP DP  RH WIND       PRES   REMARKS
MILLERS CREEK    N/A     84  63  48 SE8         N/A
LBJ GRASSLAND    N/A     79  64  61 SE5         N/A
GRANBURY         N/A     82  64  54 SE7         N/A
HAMBY            N/A     81  64  57 SE6         N/A
IVIE RESERVOIR   N/A     79  64  61 E5          N/A
COLORADO BEND    N/A     79  64  61 S5          N/A
$$

SUPPLEMENTAL OBSERVATIONS (EAST)

CITY           SKY/WX    TMP DP  RH WIND       PRES   REMARKS
CLARKSVILLE      N/A     73  70  88 SE2         N/A
TEXARKANA        N/A     70  68  94 CALM        N/A
LINDEN           N/A     72  68  88 CALM        N/A
CADDO LAKE       N/A     70  68  94 CALM        N/A
GILMER           N/A     72  68  88 CALM        N/A
HENDERSON        N/A     73  70  88 E1          N/A
LUFKIN           N/A     75  73  94 MISG        N/A
N SABINE NF      N/A     72  68  88 MISG        N/A
S SABINE NF      N/A     72  68  88 CALM        N/A
$$

SUPPLEMENTAL OBSERVATIONS ARE A COLLECTION OF AUTOMATED INSTRUMENTS
THAT ARE MAINTAINED BY A VARIETY OF FEDERAL AND STATE AGENCIES.
CERTAIN ELEMENTS...SUCH AS HUMIDITY VALUES AND SUSTAINED WIND
SPEEDS...MAY BE APPROXIMATED.




USA.gov is the U.S. government's official web portal to all federal, state and local government web resources and services.